Location: Elk Horn Observatory
(36.6768°N, 80.8309°W)
Time: 03:57:03
(UTC-05:00)

Envisat - Pass Details

Date: 01 February 2019
Orbit: 764 x 766 km, 98.2° (Epoch: 16 February)

Event Time Altitude Azimuth Distance (km) Brightness Sun altitude
Rises 18:54:00 0° 158° (SSE) 3,216 6.1 -13.4°
Reaches altitude 10° 18:56:18 10° 156° (SSE) 2,293 5.3 -13.8°
Maximum altitude 19:01:19 66° 75° (ENE) 833 2.9 -14.8°
Drops below altitude 10° 19:06:21 10° 354° (N) 2,307 5.4 -15.8°
Sets 19:08:40 0° 351° (N) 3,237 6.2 -16.3°
